Lake Fork, ID

6:10 AM MDT on September 27, 2016 (GMT -0600)
McCall

Weather History for KMYL - May, 2014

Change the Weather History Date:

Friday, May 16, 2014

  Actual Average Record
Temperature  
Mean Temperature 61 °F 46 °F  
Max Temperature 74 °F 59 °F 84 °F (2006)
Min Temperature 48 °F 33 °F 15 °F (1974)
Degree Days  
Heating Degree Days 4 19  
Month to date heating degree days 293 336  
Since 1 July heating degree days 8087 8971  
Cooling Degree Days 0 0  
Month to date cooling degree days 0 0  
Year to date cooling degree days 0 0  
Growing Degree Days 10 (Base 50)    
Moisture  
Dew Point 36 °F    
Average Humidity 42    
Maximum Humidity 71    
Minimum Humidity 12    
Precipitation  
Precipitation T in 0.07 in 0.59 in (2005)
Month to date precipitation 0.90 1.11  
Year to date precipitation 14.19 8.70  
Sea Level Pressure  
Sea Level Pressure 29.96 in    
Wind  
Wind Speed 7 mph (NW)    
Max Wind Speed 17 mph    
Max Gust Speed 23 mph    
Visibility 10 miles    
Events Thunderstorm    
T = Trace of Precipitation, MM = Missing Value Source: NWS Daily Summary

Daily Weather History Graph

Daily Weather History Graph

Search for Another Location

Airport or City:

Trip Planner

Search our weather history database for the weather conditions in past years. The results will help you decide how hot, cold, wet, or windy it might be!

Date:

Astronomy

May. 16, 2014 Rise Set
Actual Time 6:14 AM MDT 9:07 PM MDT
Civil Twilight 5:40 AM MDT 9:42 PM MDT
Nautical Twilight 4:56 AM MDT 10:25 PM MDT
Astronomical Twilight 4:05 AM MDT 11:17 PM MDT
Moon 11:18 PM MDT (5/16) 8:00 AM MDT (5/16)
Length of Visible Light 16h 01m
Length of Day
14h 53m
Waning Gibbous, 95% of the Moon is Illuminated
May 16
Waning Gibbous
May 21
Last Quarter
May 28
New
Jun 5
First Quarter
Jun 12
Full

Hourly Weather History & Observations

Time (MDT) Temp. Dew Point Humidity Pressure Visibility Wind Dir Wind Speed Gust Speed Precip Events Conditions
12:51 AM 53.1 °F 37.0 °F 55% 30.02 in 10.0 mi West 3.5 mph - N/A   Mostly Cloudy
1:51 AM 53.1 °F 37.0 °F 55% 30.04 in 10.0 mi NNW 6.9 mph - N/A   Overcast
2:51 AM 54.0 °F 41.0 °F 62% 30.01 in 10.0 mi NNW 5.8 mph - 0.00 in   Partly Cloudy
3:51 AM 52.0 °F 42.1 °F 69% 30.00 in 10.0 mi NNE 9.2 mph - N/A   Clear
4:51 AM 51.1 °F 41.0 °F 68% 29.99 in 10.0 mi Calm Calm - N/A   Mostly Cloudy
5:51 AM 50.0 °F 39.9 °F 68% 29.99 in 10.0 mi North 5.8 mph - N/A   Overcast
6:51 AM 48.9 °F 37.0 °F 64% 29.99 in 10.0 mi North 4.6 mph - N/A   Mostly Cloudy
7:09 AM 48.0 °F 37.9 °F 68% 30.09 in 10.0 mi NE 6.9 mph - N/A Thunderstorm Mostly Cloudy
7:24 AM 50.0 °F 36.0 °F 59% 30.09 in 10.0 mi North 3.5 mph - N/A   Mostly Cloudy
7:51 AM 48.9 °F 37.9 °F 66% 30.00 in 10.0 mi North 5.8 mph - N/A   Mostly Cloudy
8:51 AM 52.0 °F 39.0 °F 61% 30.00 in 10.0 mi Calm Calm - N/A   Scattered Clouds
9:51 AM 55.9 °F 41.0 °F 57% 29.99 in 10.0 mi Calm Calm - N/A   Clear
10:51 AM 62.1 °F 39.9 °F 44% 29.97 in 10.0 mi South 3.5 mph - N/A   Clear
11:51 AM 66.0 °F 39.9 °F 38% 29.95 in 10.0 mi SSW 5.8 mph - N/A   Clear
12:51 PM 68.0 °F 39.0 °F 35% 29.93 in 10.0 mi South 10.4 mph - N/A   Clear
3:51 PM 73.0 °F 37.0 °F 27% 29.89 in 10.0 mi SW 10.4 mph - N/A   Scattered Clouds
4:51 PM 70.0 °F 37.9 °F 31% 29.89 in 10.0 mi WSW 11.5 mph 19.6 mph N/A   Scattered Clouds
5:51 PM 70.0 °F 36.0 °F 29% 29.88 in 10.0 mi SW 16.1 mph 21.9 mph N/A   Partly Cloudy
6:51 PM 70.0 °F 16.0 °F 13% 29.87 in 10.0 mi SW 9.2 mph - N/A   Clear
7:51 PM 66.9 °F 24.1 °F 20% 29.88 in 10.0 mi SW 8.1 mph - N/A   Clear
8:51 PM 64.0 °F 30.0 °F 28% 29.88 in 10.0 mi West 4.6 mph - N/A   Clear
9:51 PM 55.0 °F 35.1 °F 47% 29.89 in 10.0 mi NE 4.6 mph - N/A   Clear
10:51 PM 54.0 °F 33.1 °F 45% 29.90 in 10.0 mi NNW 6.9 mph - N/A   Clear
11:51 PM 53.1 °F 36.0 °F 52% 29.90 in 10.0 mi North 6.9 mph - N/A   Clear